Retour au catalogue

STARLINK-37547

ActifCommunicationsSSO
NORAD 68846·PAYLOAD·🇺🇸 United States

Lancé Apr 26, 2026 depuis Vandenberg Space Force Base

Loading…

Prochains Passages (prochaines 24 heures)

TLE

FraisSource: CelesTrak SupGP

Époque: Sep 15, 2026, 03:34 UTC

1 68846C 26094H   26258.14909722 -.00053022  00000+0 -16461-2 0  2581
2 68846  97.2837 271.3128 0001411  91.0606 328.1395 15.33462469    18

Suivez STARLINK-37547 en temps réel avec AllMySat

Download on the App Store